JL1LCW-13 Weather Reports


time (UTC)temp
C
wind
direction
speed
KPH
gust
KPH
rain 1hr
cm
rain 24hr
cm
rain mn
cm
humidity
%
barometer
mb
20260505123659 12 202 0.0 8.0 0.00 0.00 0.00 88 1024.0
20260505115158 13 270 1.6 8.0 0.00 0.00 0.00 81 1024.0
20260505113657 13 225 3.2 6.4 0.00 0.00 0.00 78 1024.0
20260505095158 16 202 6.4 12.9 0.00 0.00 0.00 65 1023.0
20260505093658 16 157 3.2 12.9 0.00 0.00 0.00 64 1022.0
20260505085158 17 270 3.2 12.9 0.00 0.00 0.00 58 1022.0
20260505083658 17 337 1.6 12.9 0.00 0.00 0.00 57 1022.0
20260505075157 20 270 3.2 16.1 0.00 0.00 0.00 54 1021.0
20260505073659 20 225 8.0 16.1 0.00 0.00 0.00 53 1021.0
20260505065158 22 315 9.7 12.9 0.00 0.00 0.00 48 1021.0
20260505063658 22 247 8.0 14.5 0.00 0.00 0.00 49 1021.0
20260505055157 23 135 3.2 16.1 0.00 0.00 0.00 35 1021.0
20260505053659 23 180 6.4 16.1 0.00 0.00 0.00 36 1021.0
20260505035158 22 270 3.2 9.7 0.00 0.00 0.00 41 1021.0
20260505033658 22 22 3.2 9.7 0.00 0.00 0.00 41 1021.0
20260505025157 22 315 3.2 14.5 0.00 0.00 0.00 39 1022.0
20260505023659 22 45 6.4 14.5 0.00 0.00 0.00 44 1022.0
20260505015158 22 360 3.2 9.7 0.00 0.00 0.00 43 1022.0
20260505013657 22 90 3.2 9.7 0.00 0.00 0.00 46 1022.0
20260505005158 18 315 3.2 9.7 0.00 0.00 0.00 47 1021.0
20260505003658 18 225 8.0 9.7 0.00 0.00 0.00 48 1021.0
20260504235159 17 225 3.2 16.1 0.00 0.00 0.00 57 1021.0
20260504233658 17 22 3.2 16.1 0.00 0.00 0.00 59 1021.0
20260504225157 15 270 6.4 9.7 0.00 0.00 0.00 64 1021.0
20260504223657 15 292 6.4 9.7 0.00 0.03 0.00 66 1021.0
20260504215158 12 292 3.2 9.7 0.00 0.30 0.00 73 1020.0
20260504213658 12 270 1.6 8.0 0.00 0.33 0.00 75 1020.0
20260504205158 8 202 0.0 0.0 0.00 0.41 0.00 93 1019.0
20260504203657 7 225 0.0 0.0 0.00 0.41 0.00 94 1019.0
20260504195158 10 270 0.0 8.0 0.00 0.41 0.00 84 1017.0
20260504193658 10 292 0.0 8.0 0.00 0.41 0.00 82 1017.0
20260504185158 12 247 3.2 8.0 0.00 0.41 0.00 74 1016.0
20260504183658 12 270 3.2 9.7 0.00 0.41 0.00 75 1016.0
20260504175157 12 292 3.2 12.9 0.00 0.41 0.00 72 1014.0
20260504173659 12 112 3.2 12.9 0.00 0.41 0.00 72 1014.0